Location: Oakland
(41.0130°N, 74.2650°W)
Time: 04:57:26
(UTC-05:00)

Daily predictions for brighter satellites

Satellite Brightness Start Highest point End
(mag) Time Altitude Azimuth Time Altitude Azimuth Time Altitude Azimuth
CZ-3 R/B 4.5 01:37:37 10° W 02:48:32 47° S 02:57:36 10° SE
SL-16 R/B 4.4 03:40:52 21° ENE 03:40:52 21° ENE 03:44:35 10° E
Cosmos 2297 Rocket 4.0 03:51:30 26° ENE 03:51:30 26° ENE 03:54:18 10° NE
CZ-3 Stage 3 4.5 03:57:22 14° SE 03:57:22 14° SE 03:59:07 10° ESE
Cosmos 2227 Rocket 4.0 04:05:01 24° NE 04:05:01 24° NE 04:07:10 10° NNE
Tsikada Rocket 4.5 04:19:33 29° N 04:22:51 59° E 04:29:04 10° SSE
Cosmos 2333 Rocket 4.1 04:39:22 17° S 04:39:22 17° S 04:40:39 10° S
SeaSat 1 4.4 04:41:15 10° NNE 04:42:30 18° N 04:42:30 18° N
Cosmos 968 Rocket 4.5 04:41:57 10° S 04:46:57 46° ESE 04:51:59 10° NNE
Cosmos 1864 Rocket 4.3 04:41:27 10° S 04:47:34 84° W 04:53:46 10° N
Cosmos 1725 Rocket 3.8 04:41:20 10° S 04:47:34 83° W 04:53:54 10° N
SKYMED 2 4.5 04:45:52 10° SE 04:50:01 47° ENE 04:50:55 40° NE
USA 229 DEB 3.7 04:50:54 50° NW 04:53:02 88° WSW 05:00:18 10° SSE
USA 229 3.7 04:50:57 49° NW 04:53:08 89° WSW 05:00:24 10° SSE
NOAA 6 4.2 04:49:08 10° NNE 04:54:20 71° ESE 04:59:30 10° S
Cosmos 1328 4.5 05:04:54 39° NNE 05:06:01 53° E 05:09:55 10° SSE
Cosmos 304 Rocket 3.8 05:04:56 49° N 05:06:08 74° ENE 05:10:54 10° SSE
OAO 2 Rocket 3.9 05:09:34 40° SSW 05:10:07 41° S 05:14:45 10° ESE
Cosmos 2221 4.5 05:08:12 10° SSE 05:11:59 30° E 05:15:46 10° NNE
ISS -2.4 05:16:07 47° E 05:16:07 47° E 05:18:39 10° ESE
Cosmos 540 Rocket 4.2 05:17:13 36° SW 05:17:13 36° SW 05:20:42 10° S
Cosmos 783 Rocket 4.5 05:16:31 56° W 05:16:55 57° WSW 05:22:01 10° S
Cosmos 2058 4.0 05:16:23 10° N 05:20:21 44° ENE 05:24:18 10° SSE
Cosmos 2237 Rocket 3.5 05:22:48 22° SW 05:22:48 22° SW 05:25:27 10° SSW
Aureole 2 Rocket 3.7 05:26:05 35° SW 05:26:05 35° SW 05:28:52 10° S
SL-16 R/B 2.1 05:22:49 37° NW 05:24:59 63° WSW 05:30:34 10° S
Cosmos 1743 Rocket 3.9 05:27:58 43° WSW 05:27:58 43° WSW 05:31:28 10° SSW
SL-8 R/B 4.5 05:25:58 34° NNW 05:27:21 42° NNE 05:31:56 10° E
Cosmos 2297 Rocket 2.9 05:33:23 32° NW 05:33:23 32° NW 05:38:16 10° N
IDEFIX/ARIANE 42P 4.3 05:31:22 10° NNE 05:36:10 34° E 05:40:56 10° SSE
Cosmos 2233 Rocket 4.0 05:30:51 10° SSW 05:36:57 55° W 05:43:08 10° N
Cosmos 1842 Rocket 3.6 05:32:45 10° SSW 05:36:57 50° WNW 05:41:12 10° N
USA 234 3.8 05:31:35 10° ESE 05:37:53 52° NNE 05:43:00 16° NW
COSMO-SKYMED 1 2.7 05:33:48 10° S 05:38:00 49° W 05:39:28 34° NW
PSLV R/B 4.1 05:38:55 31° SSW 05:40:03 44° SSE 05:43:17 10° E
Cosmos 2151 2.8 05:39:27 13° NNW 05:43:09 72° W 05:47:22 10° S
Meteor 1-11 4.2 05:37:33 10° N 05:43:24 85° W 05:49:12 10° S
ERBS 2.5 05:44:40 36° NNW 05:45:52 66° NE 05:49:16 10° SE
Cosmos 2227 Rocket 3.5 05:46:54 20° NW 05:46:54 20° NW 05:50:17 10° N
Cosmos 1538 Rocket 4.0 05:41:35 14° NNW 05:46:11 71° WSW 05:51:30 10° S
Cosmos 1805 Rocket 4.3 05:42:21 10° N 05:46:43 53° E 05:50:59 10° SSE
Meteor 1-4 Rocket 3.7 05:48:26 28° NW 05:48:26 28° NW 05:50:43 10° N
NOSS 3-1 (C) 4.1 05:41:10 14° NW 05:47:57 90° SE 05:56:20 10° SSE
Cosmos 1340 Rocket 2.7 05:44:26 10° N 05:48:23 88° W 05:52:20 10° S
Meteor 1-16 Rocket 4.0 05:43:56 10° SSW 05:49:19 64° WNW 05:54:38 10° N
Cosmos 1271 Rocket 2.5 05:47:19 10° SSW 05:51:07 67° W 05:54:55 10° N
Meteor 1-28 Rocket 3.4 05:49:54 10° S 05:53:32 48° W 05:55:51 20° NNW
Cosmos 923 Rocket 4.5 05:48:29 10° NNW 05:53:40 62° ENE 05:58:51 10° SSE
Cosmos 1500 Rocket 4.2 05:52:33 25° NW 05:54:19 34° W 05:58:20 10° SSW
Cosmos 2034 Rocket 4.3 05:50:17 10° S 05:56:24 71° E 06:02:37 10° NNE
Ariane Rocket 2.9 05:52:05 10° N 05:57:08 64° WNW 06:02:09 10° SSW
SL-14 R/B 3.6 05:55:40 15° NNW 05:58:44 44° W 06:02:35 10° SSW
YAOGAN 3 4.5 05:56:51 10° N 06:01:14 79° WNW 06:05:34 10° SSW
Cosmos 292 Rocket 4.2 05:57:03 10° NNW 06:01:48 62° ENE 06:06:33 10° SSE
Cosmos 1680 Rocket 4.2 05:57:20 10° NNW 06:02:35 57° ENE 06:07:48 10° SSE
SJ-12 4.3 06:00:13 10° NNE 06:04:18 67° E 06:08:20 10° S
Cosmos 1626 2.4 06:03:45 10° N 06:07:29 69° E 06:11:12 10° SSE
Cosmos 1943 4.1 06:02:22 10° NNW 06:07:56 50° ENE 06:13:26 10° SE
Sich 1 3.5 06:07:38 10° N 06:12:00 65° E 06:16:16 10° SSE
SMAP 3.6 06:07:42 10° NNE 06:12:20 64° E 06:16:57 10° S
Meteor 2-1 Rocket 4.2 06:07:48 10° SSW 06:13:20 63° WNW 06:19:02 10° N
Cosmos 1513 Rocket 4.5 06:07:33 10° SSW 06:13:47 76° W 06:20:12 10° N
Cosmos 1633 Rocket 3.6 06:09:52 10° N 06:14:11 60° E 06:18:28 10° SSE
CZ-2C R/B 2.3 06:10:58 10° NNE 06:15:36 80° ESE 06:20:10 10° S
ATLAS CENTAUR R/B 4.5 06:14:56 10° NNW 06:18:16 18° NNE 06:24:15 10° ENE
Cosmos 389 Rocket 3.3 06:15:48 10° S 06:19:23 57° E 06:23:01 10° NNE
CZ-4 R/B 1.3 06:16:44 10° N 06:20:48 78° WNW 06:24:53 10° SSW
PAYLOAD A 4.0 06:18:39 10° N 06:23:37 58° WNW 06:28:21 10° SSW
CSL-04 Debris 4.3 06:18:19 10° N 06:23:40 54° WNW 06:28:57 10° SSW
Tiangong 2 3.4 06:22:26 10° SSW 06:25:02 24° SSE 06:27:39 10° E
Cosmos 1464 Rocket 4.2 06:21:18 10° SSW 06:27:24 49° WNW 06:33:30 10° N
Cosmos 1603 3.9 06:23:28 10° NNW 06:28:54 51° WSW 06:34:20 10° S
YAOGAN 1 2.6 06:28:07 10° NNE 06:32:28 88° WNW 06:36:48 10° SSW
Cosmos 2263 Rocket 2.8 06:28:54 10° S 06:34:28 63° ESE 06:40:07 10° NNE
GPS 2-05 Rocket1 4.2 06:31:45 10° WSW 06:34:42 31° S 06:37:45 10° ESE
Cosmos 2112 Rocket 4.1 06:31:52 10° NNW 06:37:14 83° WSW 06:42:34 10° SSE
Cosmos 1908 3.1 06:33:59 10° SSW 06:37:48 76° W 06:41:39 10° N
Coronas F rocket 0.9 06:37:43 10° NNW 06:40:06 61° W 06:42:28 10° S
MSX 3.9 06:39:17 10° NNE 06:45:05 90° WNW 06:50:52 10° SSW
Cosmos 1666 Rocket 3.8 06:40:56 10° NNW 06:45:14 49° W 06:49:32 10° SSW
Cosmos 2221 3.7 06:46:12 10° SW 06:49:35 22° WNW 06:52:58 10° NNW
CZ-4 R/B 4.4 06:45:45 10° N 06:49:52 70° WNW 06:53:57 10° SSW
